Regional Weather Roundup
Issued by NWS State College, PA

Home | Current Version | Previous Version | Text Only | Print | Product List | Glossary On
Versions: 1 2 3 4 5 6 7 8 9 10 11 12 13 14 15 16 17 18 19 20 21 22 23 24 25 26 27 28 29 30 31 32 33 34 35 36 37 38 39 40 41 42 43 44 45 46 47 48 49 50
000
ASUS41 KCTP 202110
RWRCTP

REGIONAL WEATHER ROUNDUP
NATIONAL WEATHER SERVICE STATE COLLEGE PA
400 PM EST SAT DEC 20 2014

Note: "fair" indicates few or no clouds below 12,000 feet with no
significant weather and/or obstructions to visibility.

* = STATION THAT DOES NOT REPORT PRECIPITATION /E.G. RAIN...SNOW...ETC/
    THUNDER OR FOG.

PAZ002>004-007>009-013>016-020>023-029>032-202200-
WESTERN PENNSYLVANIA

CITY           SKY/WX    TMP DP  RH WIND       PRES   REMARKS
ERIE           CLOUDY    31  20  63 CALM      30.25S
MEADVILLE      CLOUDY    28  20  71 W5        30.21R
FRANKLIN*      CLOUDY    27  19  74 N7        30.22R
NEW CASTLE       N/A     29  20  69 CALM      30.25S
BEAVER COUNTY  CLOUDY    28  19  69 CALM      30.23R
BUTLER*        CLOUDY    28  19  69 CALM      30.23F
PITTSBURGH INT PTCLDY    31  20  63 W6        30.22S
PITTSBURGH     PTCLDY    31  16  54 W3        30.21R
INDIANA*       CLOUDY    28  21  74 CALM      30.24S
LATROBE        PTCLDY    30  19  64 CALM      30.22F
WASHINGTON CO* NOT AVBL
$$

PAZ004>006-010>012-017>019-024>028-033>037-041-042-045-046-049>053-202200-
CENTRAL PENNSYLVANIA

CITY           SKY/WX    TMP DP  RH WIND       PRES   REMARKS
BRADFORD       CLOUDY    24  19  81 CALM      30.16R
DUBOIS         CLOUDY    26  21  81 W6        30.18R
CLEARFIELD     CLOUDY    28  20  71 CALM      30.21R
JOHNSTOWN      CLOUDY    28  19  69 N6        30.13S
ALTOONA        PTCLDY    31  21  66 CALM      30.19R
STATE COLLEGE  CLOUDY    28  21  74 CALM      30.21R
WILLIAMSPORT   CLOUDY    33  20  58 CALM      30.24R
SELINSGROVE    CLOUDY    33  21  61 CALM      30.26R
FT INDIANTOWN  CLOUDY    33  20  58 CALM      30.25R
CAPITAL CITY   MOCLDY    34  20  56 N5        30.26R
HARRISBURG     MOCLDY    33  21  61 NW5       30.25R
YORK           PTCLDY    35  21  56 CALM      30.25R
$$

PAZ038>040-043-044-047-048-054-055-060>062-067>071-202200-
EASTERN PENNSYLVANIA

CITY           SKY/WX    TMP DP  RH WIND       PRES   REMARKS
SCRANTON       CLOUDY    31  20  63 N3        30.21S
MOUNT POCONO   CLOUDY    26  17  68 CALM      30.16R
ALLENTOWN      CLOUDY    34  21  59 CALM      30.25S
QUAKERTOWN*    CLOUDY    32  23  69 CALM      30.25S
READING        CLOUDY    34  20  56 CALM      30.25R
LANCASTER      CLOUDY    34  20  56 N3        30.25R
COATESVILLE    CLOUDY    34  23  64 CALM      30.24S
POTTSTOWN      CLOUDY    33  21  61 CALM      30.26S
BLUE BELL      CLOUDY    34  23  64 CALM      30.25S
DOYLESTOWN     CLOUDY    31  21  66 CALM      30.25R
WILLOW GROVE   NOT AVBL
NORTH PHILA    CLOUDY    35  20  54 NE3       30.28S
PHILADELPHIA   CLOUDY    35  21  56 NW5       30.28R
$$


USA.gov is the U.S. government's official web portal to all federal, state and local government web resources and services.